Location: Unspecified
(54.1780°N, 0.0000°E)
Time: 04:41:24
(UTC+00:00)

Transit 2A - Pass Details

Date: 26 June 2019
Orbit: 595 x 964 km, 66.7° (Epoch: 22 July)

Event Time Altitude Azimuth Distance (km) Brightness Sun altitude
Rises 01:35:46 0° 251° (WSW) 3,647 9.1 -9.9°
Reaches altitude 10° 01:38:31 10° 258° (WSW) 2,694 8.5 -9.8°
Maximum altitude 01:44:30 42° 328° (NNW) 1,315 7.5 -9.4°
Drops below altitude 10° 01:50:12 10° 39° (NE) 2,561 10.2 -9.1°
Sets 01:52:46 0° 46° (NE) 3,450 10.9 -8.9°
